Tracking 21476 objects as of 30-Sep-2020
HD Live streaming from Space Station
objects crossing your sky now

IRIDIUM 33 DEB

Track IRIDIUM 33 DEB now!
10-day predictions


NORAD ID: 38241
Int'l Code: 1997-051ZR
Perigee: 754.9 km
Apogee: 757.2 km
Inclination: 86.3 °
Period: 99.8 minutes
Semi major axis: 7127 km
RCS: 0.0216 m2 (small)
Launch date: September 14, 1997
Source: United States (US)
Launch site: TYURATAM MISSILE AND SPACE COMPLEX (TTMTR)

Note: This is SATELLITE DEBRIS
aabbcc
Your satellite tracking list
Your tracking list is empty




NASA's NSSDC Master Catalog

Two Line Element Set (TLE):
1 38241U 97051ZR  20273.27459667  .00000447  00000-0  12790-3 0  9997
2 38241  86.3223  97.1013 0001608 213.6509 146.4590 14.42913088563885
Source of the keplerian elements: AFSPC